This demonstration page uses our WeatherBlox Daily Observations layout. Learn more.

Left ArrowRight Arrow

39.92423, -83.80882

Hourly Observations for July 15, 2022

Temp ( °F °C ) Dew Point ( °F °C ) Humidity (%) Winds ( mph kmh ) Pressure ( in mb ) Visibility ( mi km ) Precip ( " mm )
12:56 am 00:56 Clear 63 17.2 61 16.1 93 93 ENE 5 7 30.18 1022 10 16 0.00 0.00
1:56 am 01:56 Clear 61 16.1 61 16.1 100 100 ENE 5 7 30.17 1022 10 16 0.00 0.00
2:56 am 02:56 Partly Cloudy 61 16.1 61 16.1 100 100 ENE 5 7 30.18 1022 10 16 0.00 0.00
3:56 am 03:56 Mostly Cloudy 61 16.1 61 16.1 100 100 ENE 6 9 30.17 1022 10 16 0.00 0.00
4:56 am 04:56 Clear 62 16.7 62 16.7 100 100 E 3 6 30.16 1021 10 16 0.00 0.00
5:56 am 05:56 Clear 57 14 N/A N/A ENE 5 7 30.17 1022 10 16 0.00 0.00
6:56 am 06:56 Sunny 59 15 N/A N/A E 5 7 30.18 1022 10 16 0.00 0.00
7:56 am 07:56 Sunny 65 18.3 63 17.2 93 93 E 5 7 30.18 1022 10 16 0.00 0.00
8:56 am 08:56 Sunny 70 21.1 59 15 68 68 E 7 11 30.18 1022 10 16 0.00 0.00
9:56 am 09:56 Sunny 74 23.3 59 15 60 60 ESE 7 11 30.18 1022 10 16 0.00 0.00
10:56 am 10:56 Sunny 76 24.4 59 15 56 56 ESE 8 13 30.17 1022 9 14 0.00 0.00
11:56 am 11:56 Sunny 78 25.6 61 16.1 56 56 Calm 30.19 1022 10 16 0.00 0.00
12:56 pm 12:56 Sunny 80 26.7 63 17.2 56 56 VRB 7 11 30.18 1022 10 16 0.00 0.00
1:56 pm 13:56 Mostly Cloudy 79 26.1 62 16.7 56 56 E 5 7 30.17 1022 10 16 0.00 0.00
2:56 pm 14:56 Mostly Sunny 82 27.8 64 17.8 55 55 VRB 3 6 30.15 1021 10 16 0.00 0.00
3:56 pm 15:56 Mostly Cloudy 82 27.8 63 17.2 53 53 VRB 5 7 30.14 1021 10 16 0.00 0.00
4:56 pm 16:56 Partly Cloudy 83 28.3 63 17.2 51 51 SSE 5 7 30.11 1020 10 16 0.00 0.00
5:56 pm 17:56 Mostly Cloudy 80 26.7 64 17.8 58 58 Calm 30.11 1020 10 16 0.00 0.00
6:56 pm 18:56 Mostly Cloudy 80 26.7 63 17.2 56 56 Calm 30.09 1019 10 16 0.00 0.00
7:56 pm 19:56 Cloudy 78 25.6 63 17.2 60 60 WNW 8 13 30.09 1019 10 16 0.00 0.00
8:56 pm 20:56 Mostly Cloudy with Light Rain 72 22.2 69 20.6 91 91 NW 3 6 30.09 1019 10 16 0.00 0.00
9:56 pm 21:56 Cloudy with Light Rain 70 21 N/A N/A Calm 30.09 1019 10 16 0.00 0.00
10:56 pm 22:56 Cloudy 70 21 N/A N/A Calm 30.10 1019 10 16 0.00 0.00
11:56 pm 23:56 Cloudy with Light Rain 70 21 N/A N/A N 5 7 30.11 1020 10 16 0.00 0.00

Powered by AerisWeather